sat.trackr.live / text

‹ back to catalog

STARLINK-5984

NORAD 56329 · 2023-058N

PAYLOAD ACTIVE UNKNOWN

§ Identity

Operator
Country
US
Launch date
2023-04-27
Launch site
AFWTR
Launch vehicle
Mass (kg)
RCS (m²)

Purposes: comms

External: N2YO · Heavens-Above · Gunter

§ Orbital elements

Epoch: 2026-09-20T22:18:33.250464Z

Period
93.91 min
Inclination
97.2842°
Eccentricity
0.0001349
Mean motion
15.33437288 rev/d
Perigee alt
464.6 km
Apogee alt
466.5 km
Semi-major
6,843.7 km
B*
2.8186e-5
RAAN
260.7186°
Arg perigee
91.3413°
Mean anomaly
268.7984°
Rev number
18,770

§ Raw data

STARLINK-59841 56329U 23058N   26263.92955151  .00000835  00000+0  28186-4 0  99932 56329  97.2842 260.7186 0001349  91.3413 268.7984 15.33437288187708

JSON: /api/v1/satellites/56329 · /tle

For live sub-satellite position, see the globe view (requires WebGL).

§ Visibility from observer

Set your observer location to see the next 7 days of passes ≥ 10°. The values pass through the URL so the page stays shareable.

No JS? Fill the form by hand. The geolocation button needs JavaScript.